TimeEST,TemperatureF,Dew PointF,Humidity,Sea Level PressureIn,VisibilityMPH,Wind Direction,Wind SpeedMPH,Gust SpeedMPH,PrecipitationIn,Events,Conditions,WindDirDegrees,DateUTC
12:53 AM,55.0,43.0,64,29.62,10.0,West,17.3,32.2,N/A,,Clear,270,2013-03-06 05:53:00
1:53 AM,53.1,39.9,61,29.64,10.0,West,17.3,26.5,N/A,,Scattered Clouds,270,2013-03-06 06:53:00
2:53 AM,50.0,36.0,59,29.65,10.0,West,21.9,33.4,N/A,,Overcast,270,2013-03-06 07:53:00
3:53 AM,46.0,28.9,51,29.68,10.0,West,21.9,40.3,N/A,,Overcast,280,2013-03-06 08:53:00
4:53 AM,44.1,27.0,51,29.70,10.0,West,12.7,27.6,N/A,,Mostly Cloudy,270,2013-03-06 09:53:00
5:53 AM,43.0,24.1,47,29.71,10.0,West,18.4,31.1,N/A,,Overcast,270,2013-03-06 10:53:00
6:53 AM,42.1,24.1,49,29.73,10.0,West,15.0,25.3,N/A,,Overcast,280,2013-03-06 11:53:00
7:53 AM,42.1,25.0,51,29.76,10.0,WNW,12.7,21.9,N/A,,Partly Cloudy,290,2013-03-06 12:53:00
8:53 AM,44.1,24.1,45,29.78,10.0,WNW,18.4,27.6,N/A,,Clear,290,2013-03-06 13:53:00
9:53 AM,46.0,21.9,39,29.80,10.0,NW,19.6,33.4,N/A,,Clear,310,2013-03-06 14:53:00
10:53 AM,48.0,21.9,36,29.81,10.0,NW,16.1,31.1,N/A,,Partly Cloudy,310,2013-03-06 15:53:00
11:53 AM,50.0,21.0,32,29.81,10.0,WNW,17.3,33.4,N/A,,Scattered Clouds,300,2013-03-06 16:53:00
12:53 PM,51.1,21.0,31,29.81,10.0,WNW,17.3,33.4,N/A,,Mostly Cloudy,300,2013-03-06 17:53:00
1:53 PM,52.0,21.0,30,29.79,10.0,NW,21.9,34.5,N/A,,Scattered Clouds,310,2013-03-06 18:53:00
2:53 PM,54.0,21.9,29,29.78,10.0,WNW,21.9,29.9,N/A,,Clear,290,2013-03-06 19:53:00
3:53 PM,54.0,21.9,29,29.81,10.0,WNW,19.6,31.1,N/A,,Clear,300,2013-03-06 20:53:00
4:53 PM,54.0,23.0,30,29.86,10.0,NNW,25.3,34.5,N/A,,Clear,340,2013-03-06 21:53:00
5:53 PM,51.1,24.1,35,29.91,10.0,NNW,21.9,33.4,N/A,,Clear,340,2013-03-06 22:53:00
6:53 PM,48.0,25.0,41,29.97,10.0,NW,17.3,23.0,N/A,,Clear,320,2013-03-06 23:53:00
7:53 PM,46.0,26.1,46,30.00,10.0,NNW,12.7,-,N/A,,Clear,330,2013-03-07 00:53:00
8:53 PM,45.0,26.1,48,30.02,10.0,NNW,13.8,-,N/A,,Clear,340,2013-03-07 01:53:00
9:53 PM,43.0,26.1,51,30.04,10.0,NNW,12.7,-,N/A,,Clear,340,2013-03-07 02:53:00
10:53 PM,41.0,26.1,55,30.06,10.0,NNW,11.5,-,N/A,,Clear,330,2013-03-07 03:53:00
11:53 PM,39.9,26.1,58,30.08,10.0,NNW,9.2,-,N/A,,Clear,330,2013-03-07 04:53:00